Погода в Дрожжино

Россия / Московская область     55°31′39″N   37°35′37″E
темп.,
°C
ветер,
м/с
пор.,
м/с
влажн.,
%
обл.,
%
осадки,
мм/ч
давл.,
гПа
погр.,
м
9 марта, вт
вт900:00−14сз339513 0.0 101138
03:00−16сз349732 0.0 101378
06:00−17сз369874 0.0 101499
09:00−15ссз379569 0.0 1016271
12:00−12ссз458997 0.0 1017591
15:00−11ссз468398 0.1 1018872
18:00−14ссз3889100 0.1 1019238
21:00−18ссз369583 0.1 102299
10 марта, ср
ср1000:00−21ссз339613 0.0 102366
03:00−23ссз33977 0.0 102559
06:00−24ссз23970 0.0 102649
09:00−22с35950 0.0 1028235
12:00−18с348636 0.0 1028439
15:00−15с348056 0.0 1029636
18:00−18с238949 0.0 102929
21:00−21ссв239225 0.0 103122
11 марта, чт
чт1100:00−23с12910 0.0 103220
03:00−23сз12890 0.0 103320
06:00−23зсз12860 0.0 103320
09:00−19з12820 0.0 103497
12:00−13з12710 0.0 1033366
15:00−10юз23650 0.0 1032655
18:00−13юз23790 0.0 103221
21:00−17ююз34880 0.0 103238
12 марта, пт
пт1200:00−19ююз34870 0.0 103261
03:00−20ююз46860 0.0 1031103
06:00−21ююз49820 0.0 1031143
09:00−17ю510830 0.0 1030266
12:00−11ю610800 0.0 1028495
15:00−8ю712800 0.0 1026674
18:00−10ю6138184 0.0 1024514
21:00−11ю7168092 0.0 1024513
13 марта, сб
сб1300:00−10ю71675100 0.0 1022619
03:00−9ю71580100 0.0 1020715
06:00−9ю71493100 0.3 1018824
09:00−7ю81489100 0.6 1017818
12:00−5ю71392100 0.4 1016809
15:00−2ююз61191100 0.8 1015652
18:00−1ююз5109498 0.1 1015462
21:00−1ююз5109699 0.4 1015462